Weather History for DeKalb, IL

Change the Weather History Date:

Friday, March 15, 2013

  Actual Average (KARR) Record (KARR)
Temperature  
Mean Temperature 30 °F 37 °F  
Max Temperature 35 °F 47 °F 80 °F (2012)
Min Temperature 25 °F 27 °F 11 °F (1999)
Degree Days  
Heating Degree Days 35 28  
Month to date heating degree days 472  
Since 1 July heating degree days 5610  
Cooling Degree Days 0 0  
Month to date cooling degree days 0  
Year to date cooling degree days 0  
Moisture  
Dew Point 29 °F    
Average Humidity 91    
Maximum Humidity 94    
Minimum Humidity 85    
Precipitation  
Precipitation 0.06 in 0.08 in 0.48 in (2001)
Month to date precipitation 1.02  
Year to date precipitation 4.11  
Sea Level Pressure  
Sea Level Pressure 29.89 in    
Wind  
Wind Speed 6 mph (SE)    
Max Wind Speed 15 mph    
Max Gust Speed 18 mph    
Visibility 3 miles    
Events Fog , Rain    
T = Trace of Precipitation, MM = Missing Value Source: NWS Daily Summary

Daily Weather History Graph

Daily Weather History Graph

Search for Another Location

Airport:

Trip Planner

Search our weather history database for the weather conditions in past years. The results will help you decide how hot, cold, wet, or windy it might be!

Date:

Astronomy

Mar. 15, 2013 Rise Set
Actual Time 7:06 AM CDT 7:01 PM CDT
Civil Twilight 6:38 AM CDT 7:29 PM CDT
Nautical Twilight 6:06 AM CDT 8:01 PM CDT
Astronomical Twilight 5:33 AM CDT 8:34 PM CDT
Moon 8:52 AM CDT (3/15) 11:20 PM CDT (3/15)
Length of Visible Light 12h 51m
Length of Day
11h 55m
Waxing Crescent, 15% of the Moon is Illuminated
Mar 15
Waxing Crescent
Mar 19
First Quarter
Mar 27
Full
Apr 2
Last Quarter
Apr 10
New

Hourly Weather History & Observations

Time (CDT) Temp. Windchill Dew Point Humidity Pressure Visibility Wind Dir Wind Speed Gust Speed Precip Events Conditions
12:15 AM 27.9 °F 20.6 °F 25.7 °F 92% 30.07 in 5.0 mi South 6.9 mph - N/A   Clear
12:35 AM 27.1 °F 19.7 °F 24.8 °F 91% 30.06 in 5.0 mi South 6.9 mph - N/A   Clear
12:55 AM 27.1 °F 18.2 °F 25.0 °F 92% 30.05 in 5.0 mi South 9.2 mph - N/A   Clear
1:15 AM 27.1 °F 18.2 °F 24.8 °F 91% 30.04 in 5.0 mi South 9.2 mph - N/A   Clear
1:35 AM 27.7 °F 18.8 °F 25.5 °F 92% 30.04 in 5.0 mi South 9.2 mph - N/A   Clear
1:55 AM 27.3 °F 18.4 °F 25.2 °F 92% 30.03 in 4.0 mi South 9.2 mph - N/A   Clear
2:15 AM 27.0 °F 18.0 °F 24.8 °F 92% 30.01 in 4.0 mi South 9.2 mph - N/A   Clear
2:35 AM 27.1 °F 18.9 °F 24.8 °F 91% 30.00 in 4.0 mi South 8.1 mph - N/A   Clear
2:55 AM 27.3 °F 19.1 °F 25.2 °F 92% 30.00 in 4.0 mi South 8.1 mph - N/A   Clear
3:15 AM 27.9 °F 19.8 °F 25.7 °F 92% 29.99 in 4.0 mi South 8.1 mph - N/A   Clear
3:35 AM 27.7 °F 19.6 °F 25.5 °F 92% 29.98 in 4.0 mi South 8.1 mph - N/A   Clear
3:55 AM 27.0 °F 18.7 °F 24.8 °F 92% 29.98 in 4.0 mi SSW 8.1 mph - N/A   Clear
4:15 AM 26.6 °F 19.1 °F 24.6 °F 92% 29.96 in 4.0 mi South 6.9 mph - N/A   Clear
4:35 AM 26.1 °F 19.4 °F 23.9 °F 92% 29.96 in 4.0 mi South 5.8 mph - N/A   Clear
4:55 AM 25.7 °F 18.0 °F 23.5 °F 92% 29.95 in 4.0 mi South 6.9 mph - N/A   Clear
5:15 AM 25.7 °F 18.0 °F 23.7 °F 92% 29.94 in 3.0 mi South 6.9 mph - N/A   Clear
5:35 AM 26.6 °F - 24.4 °F 92% 29.96 in 4.0 mi Calm Calm - N/A   Clear
5:55 AM 26.6 °F 22.6 °F 24.4 °F 92% 29.95 in 4.0 mi SSW 3.5 mph - N/A   Clear
6:15 AM 25.7 °F - 23.5 °F 92% 29.95 in 4.0 mi Calm Calm - N/A   Clear
6:35 AM 26.6 °F - 24.6 °F 92% 29.94 in 4.0 mi Calm Calm - N/A   Clear
6:55 AM 26.6 °F - 24.4 °F 92% 29.94 in 4.0 mi Calm Calm - N/A   Clear
7:15 AM 26.6 °F - 24.4 °F 92% 29.93 in 3.0 mi Calm Calm - N/A   Clear
7:35 AM 26.6 °F - 24.4 °F 92% 29.93 in 2.5 mi Calm Calm - N/A   Clear
7:55 AM 27.9 °F - 25.7 °F 92% 29.94 in 2.5 mi Calm Calm - N/A   Clear
8:15 AM 28.8 °F - 26.4 °F 91% 29.94 in 3.0 mi Calm Calm - N/A   Clear
8:35 AM 30.7 °F - 28.4 °F 91% 29.94 in 4.0 mi Calm Calm - N/A   Clear
8:55 AM 32.5 °F 26.2 °F 30.0 °F 90% 29.94 in 4.0 mi West 6.9 mph - N/A   Scattered Clouds
9:15 AM 32.9 °F 27.5 °F 30.2 °F 90% 29.93 in 4.0 mi West 5.8 mph - N/A   Clear
9:35 AM 33.8 °F 27.0 °F 30.9 °F 89% 29.94 in 4.0 mi West 8.1 mph - N/A   Clear
9:55 AM 35.1 °F 31.0 °F 32.0 °F 89% 29.92 in 5.0 mi West 4.6 mph - N/A   Scattered Clouds
10:55 AM 35.2 °F - 31.1 °F 85% 29.91 in 5.0 mi Calm Calm - N/A   Scattered Clouds
11:15 AM 35.2 °F - 31.1 °F 85% 29.91 in 5.0 mi Calm Calm - N/A   Scattered Clouds
11:35 AM 35.2 °F - 31.3 °F 85% 29.91 in 5.0 mi Calm Calm - N/A   Clear
11:55 AM 35.2 °F - 31.1 °F 85% 29.91 in 5.0 mi Calm Calm - N/A Rain Rain
12:15 PM 35.6 °F 31.7 °F 32.0 °F 87% 29.89 in 4.0 mi East 4.6 mph - 0.01 in Rain Rain
12:35 PM 35.2 °F 29.5 °F 32.0 °F 88% 29.89 in 3.0 mi East 6.9 mph - 0.02 in Rain Light Rain
12:55 PM 35.1 °F 29.3 °F 32.2 °F 89% 29.88 in 2.5 mi ESE 6.9 mph - 0.02 in   Light Drizzle
1:15 PM 35.8 °F 33.0 °F 32.9 °F 89% 29.91 in 2.5 mi South 3.5 mph - N/A Rain Light Rain
1:35 PM 35.6 °F 32.8 °F 32.9 °F 90% 29.91 in 2.5 mi WSW 3.5 mph - N/A Rain Light Rain
1:55 PM 35.8 °F 33.0 °F 32.9 °F 89% 29.89 in 2.0 mi South 3.5 mph - 0.02 in Rain Light Rain
2:15 PM 35.1 °F - 32.4 °F 90% 29.88 in 2.0 mi Calm Calm - 0.01 in Rain Light Rain
2:35 PM 35.1 °F 32.2 °F 32.5 °F 91% 29.87 in 1.8 mi South 3.5 mph - 0.01 in Rain Light Rain
2:55 PM 35.1 °F 32.2 °F 32.5 °F 91% 29.86 in 1.8 mi SSE 3.5 mph - 0.02 in   Drizzle
3:15 PM 35.1 °F - 32.7 °F 91% 29.86 in 2.0 mi Calm Calm - N/A   Light Drizzle
3:35 PM 35.2 °F 31.2 °F 32.9 °F 91% 29.84 in 2.5 mi ENE 4.6 mph - N/A   Clear
3:55 PM 35.2 °F 31.2 °F 32.5 °F 90% 29.85 in 3.0 mi NE 4.6 mph - N/A   Clear
4:15 PM 35.4 °F - 32.7 °F 90% 29.85 in 2.5 mi Calm Calm - N/A   Light Drizzle
4:35 PM 35.6 °F 30.7 °F 32.9 °F 90% 29.83 in 2.0 mi ENE 5.8 mph - N/A Rain Light Rain
4:55 PM 35.1 °F 28.6 °F 32.7 °F 91% 29.81 in 1.8 mi ENE 8.1 mph - N/A   Light Drizzle
5:15 PM 35.1 °F 28.6 °F 32.9 °F 92% 29.81 in 1.8 mi East 8.1 mph - N/A Rain Light Rain
5:35 PM 35.1 °F 31.0 °F 32.9 °F 92% 29.81 in 1.5 mi ENE 4.6 mph - N/A   Drizzle
5:55 PM 35.1 °F 27.9 °F 32.9 °F 92% 29.79 in 1.2 mi East 9.2 mph - N/A   Mostly Cloudy
6:15 PM 35.1 °F 27.4 °F 32.9 °F 92% 29.77 in 1.2 mi East 10.4 mph - N/A   Overcast
6:35 PM 35.1 °F 26.9 °F 32.9 °F 92% 29.75 in 1.0 mi East 11.5 mph - N/A   Overcast
6:55 PM 35.1 °F 30.1 °F 32.9 °F 92% 29.77 in 1.0 mi ESE 5.8 mph - N/A   Overcast
7:15 PM 35.1 °F 29.3 °F 32.9 °F 92% 29.82 in 1.8 mi WNW 6.9 mph - N/A   Overcast
7:35 PM 34.9 °F 27.1 °F 32.7 °F 92% 29.83 in 1.8 mi NNE 10.4 mph - N/A   Overcast
7:55 PM 33.1 °F 25.5 °F 31.3 °F 93% 29.83 in 1.5 mi NE 9.2 mph - N/A   Overcast
8:15 PM 32.5 °F 24.2 °F 30.9 °F 94% 29.83 in 1.8 mi NE 10.4 mph - N/A   Overcast
8:35 PM 32.2 °F 23.8 °F 30.6 °F 94% 29.82 in 1.8 mi NE 10.4 mph - N/A   Overcast
8:55 PM 32.0 °F 22.1 °F 30.2 °F 93% 29.80 in 1.8 mi NE 13.8 mph - N/A   Overcast
9:15 PM 32.0 °F 22.1 °F 30.0 °F 92% 29.80 in 2.0 mi NE 13.8 mph - N/A   Overcast
9:35 PM 32.0 °F 21.6 °F 30.0 °F 92% 29.80 in 2.5 mi NE 15.0 mph - N/A   Overcast
9:55 PM 32.0 °F 22.1 °F 30.0 °F 92% 29.78 in 2.0 mi ENE 13.8 mph 18.4 mph N/A   Overcast
10:15 PM 32.0 °F 21.6 °F 30.0 °F 92% 29.77 in 2.0 mi ENE 15.0 mph - N/A   Overcast
10:35 PM 32.0 °F 21.6 °F 30.0 °F 92% 29.76 in 1.8 mi ENE 15.0 mph - N/A   Overcast
10:55 PM 32.0 °F 21.6 °F 30.0 °F 92% 29.75 in 1.2 mi ENE 15.0 mph - N/A   Overcast
11:15 PM 32.0 °F 23.0 °F 30.0 °F 92% 29.73 in 0.5 mi ENE 11.5 mph 15.0 mph N/A Fog Fog
11:35 PM 32.0 °F 22.1 °F 30.0 °F 92% 29.74 in 0.5 mi NE 13.8 mph - N/A Fog Fog
11:55 PM 32.0 °F 21.6 °F 29.8 °F 92% 29.73 in 0.8 mi ENE 15.0 mph - N/A   Overcast